SCP
0 0 0 0 0 0 0 0 0 0 0 0 0 0 0 0 0 0 0 0 0 0 0 0 0 0 0 0 0 0 0 0 0 0 0 0 0 0 0 0 0 0 0 0
0 0 0 0 0 0 0 0 0 0 0 0 0 0 0 0 0 0 0 -0 0 0 0 0 0 0 1 1 0 0 0 0 0 0 0 0 0 0 0 0 0 0 0 0
0 0 0 0 0 0 -0 0 0 0 0 0 0 0 0 0 0 0 -0 0 0 0 0 0 0 1 1 1 0 0 0 0 0 0 0 0 0 0 0 0 0 0 0 0
0 0 0 0 0 0 0 -0 0 0 0 0 0 0 0 0 0 0 0 0 -0 -0 0 0 0 0 0 0 0 0 0 0 0 0 0 0 0 0 0 0 0 0 0 0
0 0 0 0 0 0 0 0 -0 0 0 0 0 0 0 0 0 0 0 0 0 0 0 0 0 0 0 0 0 0 0 0 0 0 0 0 0 0 0 0 0 0 0 0
0 0 0 0 0 0 0 0 0 -0 0 0 0 0 0 0 0 0 0 0 0 0 0 0 0 0 0 0 0 0 0 0 0 0 0 0 0 0 0 0 0 0 0 0
0 0 0 0 0 0 0 0 0 0 0 0 0 0 0 0 0 0 0 0 0 0 0 0 0 0 0 0 0 0 0 0 0 0 0 0 0 0 0 0 0 0 0 0
0 0 0 0 0 0 0 0 0 0 0 0 0 0 0 0 0 0 0 0 0 0 0 0 0 0 0 0 0 0 0 0 0 0 0 0 0 0 0 0 0 0 0 0
0 0 0 0 0 0 0 0 0 0 0 0 0 0 0 0 0 0 0 0 0 0 0 0 0 0 0 0 0 0 0 0 0 0 0 0 0 0 0 0 0 0 0 0
0 0 0 0 0 0 0 0 0 0 0 0 0 0 -0 0 0 0 0 0 0 0 0 0 0 0 0 0 0 0 0 0 0 0 0 0 0 0 0 0 0 0 0 0
-0 0 0 0 0 0 0 0 0 0 0 0 0 0 0 0 0 0 0 0 0 0 0 0 0 0 0 0 0 0 0 0 0 0 0 0 0 0 0 0 0 0 0 0
0 0 0 -0 -0 0 0 0 0 0 0 -0 -0 -0 -0 0 0 0 0 0 0 0 0 0 0 0 0 0 0 0 0 0 0 0 0 0 0 0 0 0 0 0 0 0
0 0 0 0 0 0 0 -0 0 0 0 -0 -0 -0 -0 -0 -0 0 0 0 0 0 0 0 0 0 0 0 0 0 0 0 0 0 0 0 0 0 0 0 0 0 0 0
0 0 0 0 0 0 0 0 0 0 0 -0 -0 -0 0 0 0 0 0 0 0 0 0 0 0 0 0 0 0 0 0 0 0 0 0 0 0 0 0 0 0 0 0 0
-0 0 0 0 0 0 0 0 0 0 0 0 -0 -0 0 0 0 0 0 0 0 0 0 0 0 0 0 0 0 0 0 0 0 0 0 0 0 0 0 0 0 0 0 0
-0 -0 0 -0 0 0 0 0 0 0 0 0 -0 -0 0 0 0 0 0 0 0 0 0 0 0 0 0 0 0 0 0 0 0 0 0 0 0 0 0 0 0 0 0 0
-0 0 0 0 0 0 0 0 0 -0 -0 -0 -0 -0 0 0 0 0 0 0 0 0 0 0 0 0 0 0 0 0 0 0 0 0 0 0 0 0 0 0 0 0 0 0
-0 -0 -0 -0 -0 0 0 0 0 0 0 0 0 0 0 0 0 0 0 0 0 0 0 0 0 0 0 0 0 0 0 0 0 0 0 0 0 0 0 0 0 0 0 0
0 -0 -0 -0 -0 -0 -0 -0 0 0 0 0 0 0 0 0 0 0 0 0 0 0 0 0 0 0 0 0 0 0 0 0 0 0 0 0 0 0 0 0 0 0 0 0
0 0 0 0 -0 -0 -0 0 0 0 0 0 0 0 0 0 0 0 0 0 0 0 0 0 0 0 0 0 0 0 0 0 0 0 0 0 0 0 0 0 0 0 0 0
0 0 0 -0 -0 0 -0 -0 -0 0 0 0 0 0 0 0 0 0 0 0 0 0 0 0 0 0 0 0 0 0 0 0 0 0 0 0 0 0 0 0 0 0 0 0
0 0 0 0 0 0 0 0 0 0 0 0 0 0 0 0 0 0 0 0 0 0 0 0 0 0 0 0 0 0 0 0 0 0 0 0 0 0 0 0 0 0 0 0
0 0 0 0 0 0 0 0 0 0 0 0 0 0 0 0 0 0 0 0 0 0 0 0 0 0 0 0 0 0 0 0 0 0 0 0 0 0 0 0 0 0 0 0
0 0 0 0 0 0 0 0 0 0 0 0 0 0 0 0 0 0 0 0 0 0 0 0 0 0 0 0 0 0 0 0 0 0 0 0 0 0 0 0 0 0 0 0
0 0 0 0 0 0 0 0 0 0 0 0 0 0 0 0 0 0 0 0 0 0 0 0 0 0 0 0 0 0 0 0 0 0 0 0 0 0 0 0 0 0 0 0
0 0 0 0 0 0 0 0 0 0 0 0 0 0 0 0 0 0 0 0 0 0 0 0 0 0 0 0 0 0 0 0 0 0 0 0 0 0 0 0 0 0 0 0
0 0 0 0 0 0 0 0 0 0 0 0 0 0 0 0 0 0 0 0 0 0 0 0 0 0 0 0 0 0 0 0 0 0 0 0 0 0 0 0 0 0 0 0
Wind_Speed_500mb
10 9 3 3 2 8 5 3 8 4 5 6 6 8 12 11 10 11 33 50 61 70 75 78 74 70 68 67 67 61 57 53 44 41 42 42 41 39 39 38 38 34 34 35
4 4 10 3 2 12 9 5 9 7 4 2 7 3 13 17 15 5 22 37 57 62 62 65 67 65 64 70 67 66 65 61 49 43 42 43 42 43 42 38 37 40 38 35
8 5 9 9 5 2 7 1 6 6 5 8 5 8 11 13 18 14 6 24 39 49 50 57 57 62 65 69 68 69 69 63 53 44 44 43 41 41 41 37 37 42 42 39
6 6 4 6 6 5 7 9 3 9 6 11 13 15 15 15 16 15 13 8 12 24 37 49 55 54 60 68 64 60 66 65 59 48 44 46 43 44 45 42 32 37 44 42
6 5 8 4 7 8 7 6 9 13 15 15 17 8 15 17 14 13 12 12 10 12 14 23 35 39 36 30 39 54 59 54 39 45 31 30 33 44 52 53 52 43 46 45
2 5 11 10 5 9 7 5 22 24 22 20 12 3 1 8 14 14 11 14 18 16 18 14 16 14 25 35 28 3 16 35 25 39 34 31 26 28 27 29 32 33 42 45
5 7 12 8 10 10 7 11 19 23 29 29 6 8 8 12 16 17 15 11 16 15 23 22 22 22 24 23 23 5 19 23 20 16 16 21 21 18 22 23 26 30 32 35
5 3 11 4 7 11 9 4 18 20 20 22 33 25 21 18 19 18 18 18 15 20 22 22 10 6 11 15 8 11 19 24 34 21 13 14 9 14 15 16 19 22 23 24
14 10 8 9 15 13 9 9 8 17 26 31 33 33 27 19 19 19 18 17 17 11 9 11 16 11 8 16 21 20 15 21 25 18 18 11 11 8 9 13 14 13 14 14
3 5 8 3 4 4 7 10 18 23 31 27 30 31 29 20 19 18 20 20 18 18 20 22 16 11 17 22 20 19 19 13 16 21 12 13 12 11 12 14 16 15 13 11
7 10 4 8 8 13 9 20 29 24 21 26 30 32 28 20 22 22 21 22 20 18 18 23 20 17 16 16 16 17 15 9 12 12 11 13 7 12 17 17 21 20 20 16
11 26 14 30 18 22 21 20 18 24 34 26 25 32 34 29 23 22 23 21 18 19 19 20 17 16 14 13 12 10 7 10 8 2 4 1 3 6 3 5 8 10 19 23
5 38 19 31 29 23 24 21 17 22 27 31 29 26 28 31 30 26 24 24 21 21 19 18 16 16 17 17 15 12 9 8 6 6 6 7 5 6 6 5 5 5 5 3
20 40 26 40 36 30 27 25 25 30 31 28 25 22 21 23 23 20 19 20 22 19 17 16 14 12 11 11 10 10 9 8 7 5 6 7 8 9 11 13 12 9 3 9
33 43 49 41 35 35 33 29 28 31 29 22 22 20 17 13 14 17 16 16 12 12 11 10 10 11 12 11 9 7 5 3 1 2 2 1 2 2 5 8 9 8 6 7
33 38 42 49 46 42 38 31 26 30 32 20 18 17 13 9 7 9 11 9 7 5 7 7 8 14 12 9 7 5 6 9 11 11 9 8 10 10 10 10 11 10 7 8
51 43 54 55 53 48 36 25 16 22 29 23 17 17 18 14 10 11 11 7 6 6 5 8 7 10 5 6 9 12 13 14 15 16 17 18 18 16 16 15 15 14 14 12
47 48 49 42 53 49 43 32 26 21 24 24 25 23 19 16 10 8 9 10 7 8 10 8 8 9 12 13 14 12 13 15 17 18 20 22 23 25 26 25 23 22 22 21
56 50 40 38 36 47 44 35 26 20 20 18 20 21 19 18 19 19 17 18 17 12 9 11 14 18 16 17 19 18 17 19 18 18 19 22 23 21 24 24 22 19 22 25
58 54 44 35 36 49 43 34 33 28 22 22 20 13 13 12 15 20 25 31 27 25 25 23 23 23 22 23 25 26 25 26 25 25 25 26 26 25 18 20 23 22 22 23
55 54 41 35 42 46 36 30 35 32 29 25 16 12 8 7 6 6 7 9 14 18 19 22 25 30 29 33 33 35 34 32 30 30 30 30 33 33 31 26 25 27 27 25
51 54 45 42 44 42 39 39 41 38 34 29 23 15 12 13 11 10 12 14 15 14 13 10 10 13 16 19 21 22 25 32 36 38 39 44 45 41 37 35 35 28 26 28
55 50 45 44 44 40 37 42 44 39 32 26 23 21 16 9 7 9 13 14 14 11 9 8 8 12 16 21 24 28 32 35 37 40 42 41 45 46 48 44 44 39 39 36
50 39 39 41 37 34 39 46 43 36 26 23 24 21 17 12 13 14 13 15 13 8 6 7 7 10 12 14 18 22 28 34 40 47 52 54 51 48 46 47 48 48 45 46
43 44 48 43 36 34 37 42 47 42 40 38 35 29 18 12 5 17 22 17 12 10 2 0 5 12 16 20 23 29 38 40 38 39 42 46 51 53 53 51 50 53 51 46
50 51 47 41 34 33 38 43 49 52 51 48 41 30 24 19 22 19 17 12 3 2 3 4 8 13 18 21 25 31 40 46 40 35 33 33 35 40 45 52 53 51 50 53
44 48 50 50 48 46 47 49 53 61 59 53 45 38 28 25 24 17 12 15 9 5 6 12 18 21 23 24 23 27 36 41 42 45 43 39 36 35 36 40 45 48 45 48
Wind_Direction_500mb
264 249 142 129 291 5 85 161 188 33 126 234 287 321 355 15 22 183 180 187 199 205 209 210 215 219 222 227 226 224 225 222 228 229 225 224 227 234 235 238 240 239 237 240
280 351 213 186 194 122 48 331 263 136 126 23 315 320 7 15 16 116 183 191 197 202 206 210 215 222 228 230 229 229 226 226 222 225 221 222 229 237 237 236 240 240 242 241
269 11 334 297 310 10 141 204 268 221 195 160 115 67 19 2 36 49 180 192 192 204 210 217 223 228 229 234 233 232 227 223 218 216 217 220 229 237 239 239 249 250 245 247
233 7 208 251 276 299 134 120 103 119 152 159 136 109 72 41 44 62 82 186 223 221 214 215 219 223 228 233 234 233 230 213 209 209 220 229 235 237 243 234 256 261 251 249
174 183 287 297 199 202 230 143 183 161 154 149 143 90 49 42 64 76 94 107 137 171 204 227 232 237 239 231 234 247 216 205 218 217 219 230 238 239 240 241 254 271 261 252
137 178 209 233 154 143 112 273 192 188 163 184 190 137 136 22 55 71 98 145 136 136 154 159 179 197 205 178 192 286 289 227 252 227 234 238 236 235 243 239 243 257 263 247
158 241 294 248 149 128 122 236 151 183 175 186 161 107 113 93 82 69 74 114 164 183 179 178 168 197 216 209 162 250 227 246 211 172 202 211 221 226 233 241 250 258 257 258
107 90 263 44 123 156 238 351 115 128 162 157 129 114 95 87 93 90 84 94 131 162 171 174 149 182 169 203 198 209 187 222 204 210 214 243 237 210 222 240 247 248 250 254
179 218 264 300 255 262 254 162 151 127 133 135 128 114 100 84 80 81 85 92 96 125 185 201 198 176 218 248 189 190 222 234 243 234 230 214 264 232 229 237 230 232 237 242
51 265 249 268 215 214 219 199 146 136 132 135 119 100 100 120 104 90 82 84 91 104 118 119 126 137 173 187 197 202 204 217 218 235 236 215 216 224 231 223 231 230 233 233
257 275 255 237 178 91 116 142 129 130 130 127 124 119 132 128 111 102 95 93 92 89 106 109 115 128 123 115 102 145 173 171 204 202 215 213 225 239 221 222 226 226 226 214
214 193 184 183 157 132 120 117 124 135 128 138 139 132 132 122 107 101 99 99 99 103 105 114 120 126 123 118 113 112 136 137 133 96 251 357 44 9 36 14 1 310 244 204
190 186 183 172 161 148 129 123 129 127 114 134 148 137 133 126 122 114 100 97 111 114 116 114 119 114 109 108 115 127 139 146 143 127 108 92 73 52 10 12 7 3 359 245
219 174 159 173 171 159 147 135 135 131 114 109 118 140 151 153 152 139 123 109 108 112 113 118 116 111 109 99 97 103 106 105 110 99 84 81 73 67 65 60 51 37 334 282
202 189 200 182 168 165 160 154 155 152 138 130 138 134 147 166 179 170 159 149 130 107 93 95 95 94 91 84 74 64 55 67 103 56 52 236 234 322 18 20 23 23 38 16
194 199 184 180 171 169 173 171 171 172 167 173 173 158 149 130 132 163 177 171 157 88 101 120 127 123 98 54 26 347 294 270 277 281 283 274 266 269 279 301 313 331 323 342
175 167 171 170 174 175 179 180 180 197 194 190 189 181 171 162 141 141 161 175 186 187 148 125 154 188 233 327 309 301 285 275 274 279 282 278 275 274 268 268 278 278 279 271
207 197 190 194 188 185 180 184 182 194 192 196 198 198 205 204 206 200 194 201 206 213 226 231 240 249 265 288 304 286 274 274 278 276 269 267 265 266 269 272 273 272 271 254
202 199 204 203 204 197 191 191 194 189 186 190 196 209 224 238 238 236 241 238 234 240 271 276 276 271 278 283 278 283 288 285 284 281 271 262 263 275 270 273 274 266 255 251
208 209 206 207 206 200 197 201 198 194 188 190 188 203 214 235 253 261 262 253 255 264 260 270 264 266 270 268 273 282 281 283 282 274 272 264 265 269 278 265 265 264 265 262
209 203 204 203 195 197 204 208 205 203 199 195 201 199 231 226 240 261 271 271 259 261 269 261 260 261 265 272 278 278 276 272 270 273 271 265 259 259 257 262 265 260 259 253
201 197 200 200 202 205 209 214 212 203 197 193 193 206 200 199 212 241 256 258 259 261 259 256 264 275 284 287 290 288 281 278 282 268 268 273 269 261 254 257 260 258 258 257
197 201 204 207 206 205 206 206 203 199 200 203 205 199 191 193 229 253 256 246 234 223 230 243 270 286 293 293 292 292 290 286 282 275 273 272 268 263 260 258 249 252 249 245
194 202 203 196 197 205 204 199 198 201 211 209 203 202 206 223 245 228 198 184 177 195 237 260 281 320 323 326 326 326 323 309 294 282 275 271 270 267 265 263 255 246 248 243
198 198 194 196 203 209 202 202 201 205 205 202 198 193 201 195 188 177 162 173 189 174 120 306 329 344 343 338 337 339 342 331 315 302 291 282 274 270 268 267 264 263 253 241
198 200 204 209 215 211 208 208 210 209 206 202 193 188 170 159 152 163 175 164 140 238 235 242 288 310 327 327 333 348 352 352 341 328 316 310 295 281 274 267 263 260 259 249
205 210 214 216 222 225 223 220 222 215 210 207 194 172 167 165 167 174 192 219 230 250 252 280 298 299 305 312 319 335 345 347 345 347 333 309 302 294 282 279 264 253 256 254
Wind_Speed_850mb
10 9 3 3 2 8 5 3 8 4 5 6 6 8 12 11 10 11 33 50 61 70 75 78 74 70 68 67 67 61 57 53 44 41 42 42 41 39 39 38 38 34 34 35
4 4 10 3 2 12 9 5 9 7 4 2 7 3 13 17 15 5 22 37 57 62 62 65 67 65 64 70 67 66 65 61 49 43 42 43 42 43 42 38 37 40 38 35
8 5 9 9 5 2 7 1 6 6 5 8 5 8 11 13 18 14 6 24 39 49 50 57 57 62 65 69 68 69 69 63 53 44 44 43 41 41 41 37 37 42 42 39
6 6 4 6 6 5 7 9 3 9 6 11 13 15 15 15 16 15 13 8 12 24 37 49 55 54 60 68 64 60 66 65 59 48 44 46 43 44 45 42 32 37 44 42
6 5 8 4 7 8 7 6 9 13 15 15 17 8 15 17 14 13 12 12 10 12 14 23 35 39 36 30 39 54 59 54 39 45 31 30 33 44 52 53 52 43 46 45
2 5 11 10 5 9 7 5 22 24 22 20 12 3 1 8 14 14 11 14 18 16 18 14 16 14 25 35 28 3 16 35 25 39 34 31 26 28 27 29 32 33 42 45
5 7 12 8 10 10 7 11 19 23 29 29 6 8 8 12 16 17 15 11 16 15 23 22 22 22 24 23 23 5 19 23 20 16 16 21 21 18 22 23 26 30 32 35
5 3 11 4 7 11 9 4 18 20 20 22 33 25 21 18 19 18 18 18 15 20 22 22 10 6 11 15 8 11 19 24 34 21 13 14 9 14 15 16 19 22 23 24
14 10 8 9 15 13 9 9 8 17 26 31 33 33 27 19 19 19 18 17 17 11 9 11 16 11 8 16 21 20 15 21 25 18 18 11 11 8 9 13 14 13 14 14
3 5 8 3 4 4 7 10 18 23 31 27 30 31 29 20 19 18 20 20 18 18 20 22 16 11 17 22 20 19 19 13 16 21 12 13 12 11 12 14 16 15 13 11
7 10 4 8 8 13 9 20 29 24 21 26 30 32 28 20 22 22 21 22 20 18 18 23 20 17 16 16 16 17 15 9 12 12 11 13 7 12 17 17 21 20 20 16
11 26 14 30 18 22 21 20 18 24 34 26 25 32 34 29 23 22 23 21 18 19 19 20 17 16 14 13 12 10 7 10 8 2 4 1 3 6 3 5 8 10 19 23
5 38 19 31 29 23 24 21 17 22 27 31 29 26 28 31 30 26 24 24 21 21 19 18 16 16 17 17 15 12 9 8 6 6 6 7 5 6 6 5 5 5 5 3
20 40 26 40 36 30 27 25 25 30 31 28 25 22 21 23 23 20 19 20 22 19 17 16 14 12 11 11 10 10 9 8 7 5 6 7 8 9 11 13 12 9 3 9
33 43 49 41 35 35 33 29 28 31 29 22 22 20 17 13 14 17 16 16 12 12 11 10 10 11 12 11 9 7 5 3 1 2 2 1 2 2 5 8 9 8 6 7
33 38 42 49 46 42 38 31 26 30 32 20 18 17 13 9 7 9 11 9 7 5 7 7 8 14 12 9 7 5 6 9 11 11 9 8 10 10 10 10 11 10 7 8
51 43 54 55 53 48 36 25 16 22 29 23 17 17 18 14 10 11 11 7 6 6 5 8 7 10 5 6 9 12 13 14 15 16 17 18 18 16 16 15 15 14 14 12
47 48 49 42 53 49 43 32 26 21 24 24 25 23 19 16 10 8 9 10 7 8 10 8 8 9 12 13 14 12 13 15 17 18 20 22 23 25 26 25 23 22 22 21
56 50 40 38 36 47 44 35 26 20 20 18 20 21 19 18 19 19 17 18 17 12 9 11 14 18 16 17 19 18 17 19 18 18 19 22 23 21 24 24 22 19 22 25
58 54 44 35 36 49 43 34 33 28 22 22 20 13 13 12 15 20 25 31 27 25 25 23 23 23 22 23 25 26 25 26 25 25 25 26 26 25 18 20 23 22 22 23
55 54 41 35 42 46 36 30 35 32 29 25 16 12 8 7 6 6 7 9 14 18 19 22 25 30 29 33 33 35 34 32 30 30 30 30 33 33 31 26 25 27 27 25
51 54 45 42 44 42 39 39 41 38 34 29 23 15 12 13 11 10 12 14 15 14 13 10 10 13 16 19 21 22 25 32 36 38 39 44 45 41 37 35 35 28 26 28
55 50 45 44 44 40 37 42 44 39 32 26 23 21 16 9 7 9 13 14 14 11 9 8 8 12 16 21 24 28 32 35 37 40 42 41 45 46 48 44 44 39 39 36
50 39 39 41 37 34 39 46 43 36 26 23 24 21 17 12 13 14 13 15 13 8 6 7 7 10 12 14 18 22 28 34 40 47 52 54 51 48 46 47 48 48 45 46
43 44 48 43 36 34 37 42 47 42 40 38 35 29 18 12 5 17 22 17 12 10 2 0 5 12 16 20 23 29 38 40 38 39 42 46 51 53 53 51 50 53 51 46
50 51 47 41 34 33 38 43 49 52 51 48 41 30 24 19 22 19 17 12 3 2 3 4 8 13 18 21 25 31 40 46 40 35 33 33 35 40 45 52 53 51 50 53
44 48 50 50 48 46 47 49 53 61 59 53 45 38 28 25 24 17 12 15 9 5 6 12 18 21 23 24 23 27 36 41 42 45 43 39 36 35 36 40 45 48 45 48
Wind_Direction_850mb
264 249 142 129 291 5 85 161 188 33 126 234 287 321 355 15 22 183 180 187 199 205 209 210 215 219 222 227 226 224 225 222 228 229 225 224 227 234 235 238 240 239 237 240
280 351 213 186 194 122 48 331 263 136 126 23 315 320 7 15 16 116 183 191 197 202 206 210 215 222 228 230 229 229 226 226 222 225 221 222 229 237 237 236 240 240 242 241
269 11 334 297 310 10 141 204 268 221 195 160 115 67 19 2 36 49 180 192 192 204 210 217 223 228 229 234 233 232 227 223 218 216 217 220 229 237 239 239 249 250 245 247
233 7 208 251 276 299 134 120 103 119 152 159 136 109 72 41 44 62 82 186 223 221 214 215 219 223 228 233 234 233 230 213 209 209 220 229 235 237 243 234 256 261 251 249
174 183 287 297 199 202 230 143 183 161 154 149 143 90 49 42 64 76 94 107 137 171 204 227 232 237 239 231 234 247 216 205 218 217 219 230 238 239 240 241 254 271 261 252
137 178 209 233 154 143 112 273 192 188 163 184 190 137 136 22 55 71 98 145 136 136 154 159 179 197 205 178 192 286 289 227 252 227 234 238 236 235 243 239 243 257 263 247
158 241 294 248 149 128 122 236 151 183 175 186 161 107 113 93 82 69 74 114 164 183 179 178 168 197 216 209 162 250 227 246 211 172 202 211 221 226 233 241 250 258 257 258
107 90 263 44 123 156 238 351 115 128 162 157 129 114 95 87 93 90 84 94 131 162 171 174 149 182 169 203 198 209 187 222 204 210 214 243 237 210 222 240 247 248 250 254
179 218 264 300 255 262 254 162 151 127 133 135 128 114 100 84 80 81 85 92 96 125 185 201 198 176 218 248 189 190 222 234 243 234 230 214 264 232 229 237 230 232 237 242
51 265 249 268 215 214 219 199 146 136 132 135 119 100 100 120 104 90 82 84 91 104 118 119 126 137 173 187 197 202 204 217 218 235 236 215 216 224 231 223 231 230 233 233
257 275 255 237 178 91 116 142 129 130 130 127 124 119 132 128 111 102 95 93 92 89 106 109 115 128 123 115 102 145 173 171 204 202 215 213 225 239 221 222 226 226 226 214
214 193 184 183 157 132 120 117 124 135 128 138 139 132 132 122 107 101 99 99 99 103 105 114 120 126 123 118 113 112 136 137 133 96 251 357 44 9 36 14 1 310 244 204
190 186 183 172 161 148 129 123 129 127 114 134 148 137 133 126 122 114 100 97 111 114 116 114 119 114 109 108 115 127 139 146 143 127 108 92 73 52 10 12 7 3 359 245
219 174 159 173 171 159 147 135 135 131 114 109 118 140 151 153 152 139 123 109 108 112 113 118 116 111 109 99 97 103 106 105 110 99 84 81 73 67 65 60 51 37 334 282
202 189 200 182 168 165 160 154 155 152 138 130 138 134 147 166 179 170 159 149 130 107 93 95 95 94 91 84 74 64 55 67 103 56 52 236 234 322 18 20 23 23 38 16
194 199 184 180 171 169 173 171 171 172 167 173 173 158 149 130 132 163 177 171 157 88 101 120 127 123 98 54 26 347 294 270 277 281 283 274 266 269 279 301 313 331 323 342
175 167 171 170 174 175 179 180 180 197 194 190 189 181 171 162 141 141 161 175 186 187 148 125 154 188 233 327 309 301 285 275 274 279 282 278 275 274 268 268 278 278 279 271
207 197 190 194 188 185 180 184 182 194 192 196 198 198 205 204 206 200 194 201 206 213 226 231 240 249 265 288 304 286 274 274 278 276 269 267 265 266 269 272 273 272 271 254
202 199 204 203 204 197 191 191 194 189 186 190 196 209 224 238 238 236 241 238 234 240 271 276 276 271 278 283 278 283 288 285 284 281 271 262 263 275 270 273 274 266 255 251
208 209 206 207 206 200 197 201 198 194 188 190 188 203 214 235 253 261 262 253 255 264 260 270 264 266 270 268 273 282 281 283 282 274 272 264 265 269 278 265 265 264 265 262
209 203 204 203 195 197 204 208 205 203 199 195 201 199 231 226 240 261 271 271 259 261 269 261 260 261 265 272 278 278 276 272 270 273 271 265 259 259 257 262 265 260 259 253
201 197 200 200 202 205 209 214 212 203 197 193 193 206 200 199 212 241 256 258 259 261 259 256 264 275 284 287 290 288 281 278 282 268 268 273 269 261 254 257 260 258 258 257
197 201 204 207 206 205 206 206 203 199 200 203 205 199 191 193 229 253 256 246 234 223 230 243 270 286 293 293 292 292 290 286 282 275 273 272 268 263 260 258 249 252 249 245
194 202 203 196 197 205 204 199 198 201 211 209 203 202 206 223 245 228 198 184 177 195 237 260 281 320 323 326 326 326 323 309 294 282 275 271 270 267 265 263 255 246 248 243
198 198 194 196 203 209 202 202 201 205 205 202 198 193 201 195 188 177 162 173 189 174 120 306 329 344 343 338 337 339 342 331 315 302 291 282 274 270 268 267 264 263 253 241
198 200 204 209 215 211 208 208 210 209 206 202 193 188 170 159 152 163 175 164 140 238 235 242 288 310 327 327 333 348 352 352 341 328 316 310 295 281 274 267 263 260 259 249
205 210 214 216 222 225 223 220 222 215 210 207 194 172 167 165 167 174 192 219 230 250 252 280 298 299 305 312 319 335 345 347 345 347 333 309 302 294 282 279 264 253 256 254